Regional Weather Roundup
Issued by NWS

Home | Current Version | Previous Version | Text Only | Print | Product List | Glossary On
Versions: 1 2 3 4 5 6 7 8 9 10 11 12 13 14 15 16 17 18 19 20 21 22 23 24 25 26 27
000
ASUS46 KSEW 292110
RWRWA

WASHINGTON REGIONAL WEATHER ROUNDUP
NATIONAL WEATHER SERVICE SEATTLE WA
200 PM PDT MON MAY 29 2017

NOTE:"FAIR" INDICATES FEW OR NO CLOUDS BELOW 12,000 FEET WITH NO
SIGNIFICANT WEATHER AND/OR OBSTRUCTIONS TO VISIBILITY.

WAZ507-509-555>559-292200-
SEATTLE, TACOMA, EVERETT, AND VICINITY

CITY           SKY/WX    TMP DP  RH WIND       PRES   REMARKS
EVERETT        SUNNY     64  54  69 W5        30.00F
BOEING FIELD   SUNNY     68  57  68 VRB5      29.98F
RENTON         SUNNY     68  58  70 N7        29.98F
SEATAC AIRPORT MOSUNNY   67  54  63 CALM      29.99F
JBLM-MCCHORD   SUNNY     68  58  70 N3        29.99F
PUYALLUP         N/A     70  57  64 CALM      29.99F
BREMERTON      SUNNY     72  56  57 VRB3      29.98F
JBLM-FT LEWIS  NOT AVBL
TACOMA NARROWS SUNNY     63  54  72 S5        30.00F
$$

WAZ001-503-506-510-514-515-292200-
NORTH INTERIOR

CITY           SKY/WX    TMP DP  RH WIND       PRES   REMARKS
BELLINGHAM     SUNNY     65  55  70 VRB3      29.98F
FRIDAY HARBOR  SUNNY     61  54  77 E8        30.01F
EASTSOUND      SUNNY     63  54  72 N5        29.98F
PORT ANGELES   SUNNY     58  52  80 W10       30.01F
EDIZ HOOK      FAIR      56  49  79 W14G21    30.01F
PORT TOWNSEND  FAIR      64  55  72 S6        30.00F
NAS WHIDBEY    CLOUDY    57  49  74 W7        30.04F
ARLINGTON      SUNNY     70  54  56 NW9       29.99F
BURLINGTON     SUNNY     66  55  68 VRB7      29.99F
$$

WAZ020-022-039-040-504-511-512-292200-
SOUTHWEST INTERIOR

CITY           SKY/WX    TMP DP  RH WIND       PRES   REMARKS
SHELTON        SUNNY     71  55  56 SW3       29.97F
OLYMPIA        SUNNY     67  55  65 CALM      29.99F
CHEHALIS       FAIR      70  57  64 CALM      30.00F
KELSO          PTSUNNY   63  54  72 VRB3      30.02F
VANCOUVER      CLOUDY    64  56  75 S5        30.01F
SCAPPOOSE, OR  MOSUNNY   64  57  78 E7        30.00F
PORTLAND, OR   PTSUNNY   64  52  64 NE6       30.01F
$$

WAZ021-516-517-292200-
WASHINGTON COAST

CITY           SKY/WX    TMP DP  RH WIND       PRES   REMARKS
FORKS          MOSUNNY   60  51  72 W12       30.04S
HOQUIAM        CLOUDY    57  52  83 SW10      30.05S
ASTORIA, OR    CLOUDY    57  50  77 W5        30.05S
$$

WAZ019-023-024-040-567>569-292200-
CASCADE MOUNTAINS AND COLUMBIA GORGE

CITY           SKY/WX    TMP DP  RH WIND       PRES   REMARKS
STAMPEDE PASS  MOSUNNY   77  41  27 VRB5      30.10F
TROUTDALE, OR  CLOUDY    63  53  70 VRB3      30.01F
THE DALLES, OR SUNNY     91  54  28 VRB5      29.88F
$$

WAZ026-027-041>044-520-521-292200-
EAST SLOPES

CITY           SKY/WX    TMP DP  RH WIND       PRES   REMARKS
OMAK           SUNNY     86  48  26 S6        29.98F
WENATCHEE      SUNNY     88  43  20 VRB6      29.96F
ELLENSBURG     SUNNY     90  47  22 VRB6      29.98F
YAKIMA         SUNNY     93  46  19 S6        29.95F
SUNNYSIDE ARPT CLEAR     87  51  28 SE8       29.93F
$$

WAZ028-034-035-292200-
COLUMBIA BASIN

CITY           SKY/WX    TMP DP  RH WIND       PRES   REMARKS
EPHRATA        SUNNY     91  39  16 NE6       29.96F
MOSES LAKE     SUNNY     91  39  16 VRB6      29.97F
PASCO          SUNNY     93  49  22 N8        29.92F HX  90
HERMISTON, OR  SUNNY     94  42  16 NE10      29.91F HX  90
$$

WAZ036>038-292200-
NORTHEAST WASHINGTON

CITY           SKY/WX    TMP DP  RH WIND       PRES   REMARKS
SPOKANE GEIGER MOSUNNY   84  40  21 CALM      30.03F
SPOKANE FELTS  SUNNY     88  40  18 VRB7      30.01F
FAIRCHILD AFB  SUNNY     83  42  23 CALM      30.03F
COEURDALENE,ID SUNNY     87  41  19 NW7       30.03F
DEER PARK      SUNNY     85  39  19 S6        30.02F
$$

WAZ029>033-292200-
SOUTHEAST WASHINGTON

CITY           SKY/WX    TMP DP  RH WIND       PRES   REMARKS
PULLMAN        SUNNY     84  45  25 NE3       30.04F
LEWISTON, ID   SUNNY     87  52  29 CALM      29.96F
WALLA WALLA    SUNNY     88  48  25 CALM      29.96F
PENDLETON, OR  SUNNY     89  50  26 N9G18     29.95F
$$




USA.gov is the U.S. government's official web portal to all federal, state and local government web resources and services.